This is the latest recevied weather packets stored in our database for station/object DB5WY-13. If no packets are shown the sender has not sent any weather packets the latest 10 day(s).
| Time | Temp. | Humidity | Pressure | Rain* | Wind** | Luminosity | Snow |
|---|---|---|---|---|---|---|---|
| 1777741809 | 20.56° C | 45% | 1018.4 hPa | 0 mm | - | - | - |
| 1777741209 | 20.56° C | 44% | 1018.3 hPa | 0 mm | - | - | - |
| 1777740609 | 21.11° C | 43% | 1018.4 hPa | 0 mm | - | - | - |
| 1777740009 | 21.67° C | 42% | 1018.5 hPa | 0 mm | - | - | - |
| 1777739409 | 22.22° C | 42% | 1018.4 hPa | 0 mm | - | - | - |
| 1777738809 | 22.22° C | 42% | 1018.6 hPa | 0 mm | - | - | - |
| 1777738209 | 22.22° C | 41% | 1018.8 hPa | 0 mm | - | - | - |
| 1777737610 | 22.78° C | 40% | 1018.8 hPa | 0 mm | - | - | - |
| 1777737009 | 23.33° C | 39% | 1018.9 hPa | 0 mm | - | - | - |
| 1777736410 | 23.33° C | 39% | 1019.1 hPa | 0 mm | - | - | - |
| 1777735810 | 23.33° C | 39% | 1019.3 hPa | 0 mm | - | - | - |
| 1777735210 | 23.89° C | 38% | 1019.4 hPa | 0 mm | - | - | - |
| 1777734610 | 23.89° C | 37% | 1019.4 hPa | 0 mm | - | - | - |
| 1777734010 | 23.89° C | 37% | 1019.6 hPa | 0 mm | - | - | - |
| 1777733410 | 24.44° C | 36% | 1019.6 hPa | 0 mm | - | - | - |
| 1777732810 | 25° C | 36% | 1019.9 hPa | 0 mm | - | - | - |
| 1777732210 | 25.56° C | 35% | 1020 hPa | 0 mm | - | - | - |
| 1777731610 | 26.11° C | 34% | 1020 hPa | 0 mm | - | - | - |
| 1777731010 | 27.78° C | 30% | 1020.1 hPa | 0 mm | - | - | - |
| 1777730410 | 27.78° C | 30% | 1020.3 hPa | 0 mm | - | - | - |
| 1777729810 | 28.89° C | 29% | 1020.3 hPa | 0 mm | - | - | - |
| 1777729210 | 28.89° C | 29% | 1020.4 hPa | 0 mm | - | - | - |
| 1777728610 | 30° C | 28% | 1020.5 hPa | 0 mm | - | - | - |
| 1777728010 | 28.89° C | 29% | 1020.5 hPa | 0 mm | - | - | - |
| 1777727410 | 28.89° C | 29% | 1020.7 hPa | 0 mm | - | - | - |
* Rain latest hour (hover to see other rain measurements)
** Current wind speed in m/s (hover to see current wind gust speed)